| time (UTC) | temp F | wind direction | speed MPH | gust MPH | rain 1hr in | rain 24hr in | rain mn in | humidity % | barometer mb |
| 20260507104538 | 55 | 305 | 0.0 | 5.0 | 0.00 | 0.21 | 0.01 | 92 | 1108.1 |
| 20260507103149 | 55 | 321 | 0.0 | 4.0 | 0.00 | 0.22 | 0.01 | 92 | 1108.1 |
| 20260507101532 | 55 | 327 | 1.0 | 8.0 | 0.01 | 0.22 | 0.01 | 92 | 1107.7 |
| 20260507100052 | 55 | 1 | 0.0 | 5.0 | 0.01 | 0.22 | 0.01 | 93 | 1107.6 |
| 20260507094541 | 55 | 360 | 0.0 | 1.0 | 0.01 | 0.22 | 0.01 | 93 | 1108.0 |
| 20260507093037 | 55 | 5 | 0.0 | 6.0 | 0.01 | 0.22 | 0.00 | 93 | 1107.9 |
| 20260507091531 | 55 | 46 | 0.0 | 5.0 | 0.00 | 0.21 | 0.00 | 93 | 1107.5 |
| 20260507090040 | 55 | 112 | 0.0 | 0.0 | 0.00 | 0.21 | 0.00 | 93 | 1107.4 |
| 20260507084540 | 56 | 98 | 0.0 | 5.0 | 0.00 | 0.21 | 0.00 | 92 | 1107.2 |
| 20260507083034 | 56 | 332 | 1.0 | 8.0 | 0.00 | 0.21 | 0.00 | 92 | 1107.6 |
| 20260507074553 | 57 | 270 | 0.0 | 0.0 | 0.00 | 0.21 | 0.00 | 93 | 1107.5 |
| 20260507073033 | 57 | 239 | 0.0 | 4.0 | 0.00 | 0.21 | 0.00 | 93 | 1107.6 |
| 20260507071538 | 57 | 66 | 1.0 | 10.0 | 0.00 | 0.21 | 0.00 | 93 | 1107.3 |
| 20260507070040 | 56 | 329 | 0.0 | 6.0 | 0.00 | 0.21 | 0.00 | 94 | 1107.4 |
| 20260507064538 | 56 | 329 | 2.0 | 8.0 | 0.00 | 0.21 | 0.00 | 94 | 1107.5 |
| 20260507063039 | 56 | 4 | 2.0 | 11.0 | 0.00 | 0.21 | 0.00 | 95 | 1108.2 |
| 20260507061540 | 57 | 351 | 0.0 | 5.0 | 0.00 | 0.21 | 0.00 | 95 | 1108.3 |
| 20260507060144 | 57 | 9 | 1.0 | 7.0 | 0.00 | 0.23 | 0.00 | 95 | 1108.4 |
| 20260507054539 | 57 | 295 | 0.0 | 5.0 | 0.00 | 0.23 | 0.00 | 95 | 1108.6 |
| 20260507053031 | 58 | 322 | 2.0 | 16.0 | 0.00 | 0.23 | 0.00 | 95 | 1108.7 |
| 20260507051539 | 60 | 289 | 0.0 | 8.0 | 0.00 | 0.23 | 0.00 | 96 | 1108.4 |
| 20260507050039 | 61 | 270 | 0.0 | 1.0 | 0.00 | 0.23 | 0.00 | 96 | 1107.8 |
| 20260507044641 | 61 | 270 | 0.0 | 1.0 | 0.00 | 0.23 | 0.00 | 96 | 1107.8 |
| 20260507043049 | 61 | 270 | 0.0 | 0.0 | 0.00 | 0.23 | 0.00 | 96 | 1107.8 |
| 20260507041617 | 61 | 270 | 0.0 | 0.0 | 0.00 | 0.24 | 0.00 | 96 | 1108.1 |
| 20260507040111 | 61 | 270 | 0.0 | 1.0 | 0.00 | 0.24 | 0.00 | 96 | 1108.6 |
| 20260507034614 | 61 | 270 | 0.0 | 0.0 | 0.00 | 0.24 | 0.24 | 96 | 1108.8 |
| 20260507033040 | 61 | 270 | 0.0 | 1.0 | 0.00 | 0.24 | 0.24 | 96 | 1109.2 |
| 20260507031537 | 61 | 270 | 0.0 | 0.0 | 0.00 | 0.24 | 0.24 | 96 | 1109.0 |
| 20260507030041 | 61 | 270 | 0.0 | 1.0 | 0.00 | 0.24 | 0.24 | 95 | 1108.9 |
| 20260507024539 | 61 | 270 | 0.0 | 0.0 | 0.00 | 0.24 | 0.24 | 95 | 1108.8 |
| 20260507023115 | 61 | 270 | 0.0 | 2.0 | 0.00 | 0.24 | 0.24 | 95 | 1108.8 |
| 20260507021531 | 61 | 270 | 0.0 | 1.0 | 0.00 | 0.24 | 0.24 | 95 | 1108.7 |
| 20260507020051 | 62 | 270 | 0.0 | 2.0 | 0.00 | 0.24 | 0.24 | 95 | 1108.4 |
| 20260507020038 | 63 | 259 | 1.0 | 6.0 | 0.00 | 0.24 | 0.24 | 95 | 1108.9 |
| 20260507011601 | 58 | 209 | 0.0 | 6.0 | 0.00 | 0.23 | 0.23 | 97 | 1106.1 |
| 20260507011552 | 58 | 62 | 0.0 | 1.0 | 0.00 | 0.23 | 0.04 | 97 | 1106.3 |